RH
91 93 89 86 85 83 80 78 76 75 75 73 69 66 64 64 62 56 54 53 52 48 45 44 42 39 37 36 36 36 35 34 34 37 39 40 39 39 38 39 41 43 45 45 46 46 47 49 51 54 56 58 60 61 62 61 61 61 60 58 54 53 49 48 53 55 56 51 43 42 43 40 37 40 42 41 41 45 47 48 48 46 48 45 44
89 90 87 84 83 81 79 77 76 73 72 69 67 64 61 60 60 56 51 50 49 45 43 43 41 38 36 35 36 35 34 33 34 37 38 38 38 38 39 40 42 43 44 45 45 46 47 49 50 52 54 56 58 59 60 61 61 61 62 61 59 58 53 48 52 56 58 58 50 43 44 43 38 37 42 45 46 48 49 51 52 48 48 44 41
86 86 84 81 77 77 76 75 74 73 71 68 65 61 57 56 56 53 48 47 46 42 42 42 40 38 36 36 36 35 34 34 36 38 38 37 37 39 40 41 42 43 43 43 44 45 47 49 50 51 52 53 54 55 58 59 60 60 62 62 61 60 55 49 52 56 59 60 54 43 41 44 41 38 42 48 52 54 55 56 56 52 50 47 42
82 82 81 79 75 72 72 72 71 70 69 67 64 59 56 54 51 48 45 44 42 40 42 41 39 38 37 37 36 36 35 36 38 39 38 37 38 39 41 42 42 43 42 42 43 45 46 48 50 50 50 51 52 53 55 57 58 58 60 62 62 61 56 52 52 56 59 60 57 48 39 41 44 41 44 50 55 58 58 56 54 53 52 49 46
76 76 77 76 72 69 69 72 69 66 66 65 62 58 56 54 49 45 43 41 40 40 41 40 39 39 38 38 37 37 38 38 39 39 39 39 40 41 43 44 44 43 42 43 44 44 45 47 48 49 49 49 50 50 51 56 58 57 58 59 61 61 57 54 52 54 60 58 59 55 40 37 44 44 44 48 54 57 55 54 53 54 54 52 51
73 73 74 73 72 68 68 71 69 65 63 61 59 57 56 52 47 44 42 40 40 40 39 40 39 39 39 39 39 39 40 40 40 40 40 40 41 44 46 45 44 43 43 44 45 45 45 45 47 48 48 48 48 48 50 54 58 59 59 58 58 60 59 57 52 54 59 55 56 57 43 34 39 44 46 47 49 52 51 52 53 55 56 54 54
74 72 73 72 71 69 66 66 65 62 59 58 58 56 53 49 46 42 41 40 40 39 38 38 38 39 40 41 41 40 41 41 41 41 41 41 42 44 46 45 45 44 44 45 45 46 46 46 46 46 47 47 47 49 50 53 57 60 62 61 59 60 61 60 56 56 58 56 55 55 45 34 35 39 46 49 48 49 50 50 51 54 56 55 53
73 70 70 70 69 67 62 59 59 59 58 58 58 55 50 48 45 40 39 40 38 37 37 37 37 39 40 41 41 41 41 41 41 40 41 42 44 45 46 46 46 45 46 46 46 46 47 47 47 47 46 47 48 49 51 54 58 59 61 63 62 62 62 63 60 58 58 56 54 52 46 37 34 36 42 48 49 50 51 53 52 52 53 52 51
67 65 65 66 64 61 57 56 57 57 57 56 55 53 50 48 43 39 38 37 37 36 35 36 37 39 41 41 41 40 40 40 40 40 41 43 45 47 48 49 48 48 48 47 47 48 48 48 48 48 47 48 49 49 51 55 58 58 58 60 63 65 63 62 61 59 58 57 53 50 47 40 37 37 40 44 46 48 51 54 54 52 53 51 48
60 59 58 58 58 56 55 55 55 55 55 53 51 50 50 47 40 37 36 35 35 34 34 36 38 40 42 42 41 40 40 41 40 41 43 45 47 50 51 50 50 51 52 51 49 50 51 50 49 49 49 48 50 50 51 53 55 57 59 60 61 63 63 62 60 59 60 59 54 49 45 39 38 39 41 45 47 50 51 53 54 54 54 52 48
55 54 53 53 54 53 53 52 52 51 51 50 49 49 49 45 39 35 34 34 35 35 36 39 41 43 43 43 43 41 42 42 42 43 45 46 49 50 51 51 52 53 54 53 52 52 53 52 50 51 51 50 52 50 50 51 53 56 57 58 60 61 63 64 61 60 62 63 59 53 44 35 36 40 42 43 44 50 52 52 56 56 54 52 50
52 51 50 50 51 51 51 49 48 47 46 47 48 49 48 44 39 34 33 35 37 39 41 43 44 45 45 45 45 44 45 46 46 48 49 49 50 51 52 54 55 55 56 55 55 55 54 53 52 52 52 52 54 53 51 50 53 56 55 57 60 61 63 64 61 61 63 64 63 57 47 35 34 40 42 42 41 45 49 49 50 51 48 47 49
49 49 48 49 49 49 49 47 46 44 43 43 44 46 46 44 40 35 34 37 40 42 43 44 45 45 47 47 47 48 49 50 51 53 53 52 52 53 56 58 59 60 60 58 57 58 57 55 53 52 53 55 55 56 55 53 53 54 56 59 61 61 64 63 61 62 63 64 64 60 51 38 33 38 40 42 42 42 43 43 43 42 40 40 43
47 47 48 47 47 48 47 46 44 42 41 40 40 40 40 41 40 38 37 40 41 43 44 45 45 47 48 49 49 51 53 53 54 54 54 53 53 56 57 58 60 62 63 62 62 61 60 58 55 54 57 59 58 57 56 58 56 54 56 60 61 60 63 63 62 64 64 64 63 61 56 45 37 39 40 39 43 44 41 38 38 38 37 37 39
45 45 46 47 46 46 46 45 44 43 41 39 38 38 38 39 40 40 41 43 44 44 46 47 48 49 50 50 51 53 55 56 55 54 53 52 53 55 55 55 57 58 60 62 64 64 61 58 57 57 59 61 60 56 54 56 56 54 55 60 63 62 61 63 64 67 66 64 65 63 62 55 45 41 41 41 41 44 44 40 36 36 36 35 38
44 44 45 47 47 47 46 45 45 44 43 41 40 39 40 40 40 41 42 44 44 45 46 48 50 50 50 51 52 54 55 56 55 53 51 51 53 54 54 55 56 57 58 61 62 63 61 58 57 57 59 61 60 57 56 55 55 54 54 58 64 64 60 62 64 67 67 65 65 65 63 61 56 47 43 42 42 42 44 43 37 37 38 35 37
44 44 44 46 47 47 45 45 45 44 43 42 42 41 41 41 41 41 42 42 42 42 45 48 49 50 50 51 54 55 54 53 52 51 50 50 52 51 50 52 54 56 59 61 60 60 60 58 58 60 61 61 60 59 58 57 58 56 54 54 58 63 61 62 63 65 67 65 64 64 61 60 59 56 48 43 43 43 41 41 41 40 41 38 38
44 43 43 45 45 44 42 42 43 42 42 42 42 41 41 40 40 41 40 40 40 42 44 47 50 51 51 52 52 52 50 49 47 47 47 46 45 44 45 46 48 53 57 58 57 57 58 57 58 59 58 57 56 57 56 56 53 49 50 50 48 55 61 64 66 66 67 66 64 62 61 60 58 60 56 48 44 44 42 39 40 41 42 42 41
42 42 42 42 41 40 40 40 40 40 40 41 41 40 40 40 40 39 39 40 42 43 46 48 50 51 51 49 48 46 44 43 44 44 42 39 37 39 41 42 45 49 53 54 53 53 53 52 52 51 52 53 54 55 56 54 50 49 57 60 54 54 60 64 67 68 69 68 67 65 62 62 60 59 60 56 48 44 44 41 38 39 42 44 44
40 39 39 40 38 37 39 39 39 39 39 39 40 39 39 39 39 39 40 42 44 46 47 49 50 50 49 47 45 43 41 42 43 42 39 38 37 39 41 41 43 45 48 49 46 46 45 44 44 45 47 50 52 56 58 55 51 56 63 64 62 60 60 61 63 66 69 68 67 67 66 65 64 62 61 62 57 48 44 42 38 37 40 42 45
37 36 37 37 36 36 38 37 37 37 37 38 38 38 39 39 39 39 40 42 45 46 47 48 49 49 48 46 46 44 44 44 43 41 40 40 40 41 41 41 41 40 43 43 41 40 40 40 42 42 43 44 48 53 57 56 53 55 56 56 59 60 58 57 59 61 65 68 68 68 66 66 67 66 64 64 63 56 48 44 40 38 40 42 43
34 33 35 35 34 36 37 36 35 36 36 36 37 37 37 37 37 38 39 41 43 44 45 46 46 47 46 45 46 48 48 47 44 44 44 43 43 42 40 39 39 39 40 42 39 38 40 41 42 43 43 43 47 51 54 55 51 49 50 50 51 52 50 49 52 55 59 64 67 68 64 63 65 66 65 65 63 60 54 48 43 40 40 43 43
32 32 35 35 34 36 36 36 36 35 35 35 35 35 35 36 36 37 39 40 41 42 43 43 43 44 43 43 45 47 48 46 44 45 45 45 45 43 42 41 42 41 40 44 42 40 42 43 44 45 46 47 51 53 53 54 50 45 45 44 40 39 37 38 43 46 49 54 59 62 61 59 60 62 65 65 65 64 62 55 48 43 40 41 42
35 35 39 36 34 36 36 37 36 34 35 36 35 35 36 36 37 37 38 39 40 41 41 40 42 43 42 42 43 45 45 44 45 46 45 46 48 48 48 47 48 48 45 47 47 48 49 47 47 48 48 51 53 53 53 53 51 44 40 37 35 35 33 33 36 37 39 43 47 51 54 55 53 55 61 64 65 67 68 65 58 50 44 41 39
39 40 42 38 34 34 36 36 36 35 37 37 37 37 35 36 36 36 36 38 39 40 39 39 40 43 42 42 43 45 46 47 49 49 46 48 51 53 53 53 52 52 50 51 52 51 51 50 49 50 49 49 49 48 48 50 49 43 38 37 36 35 34 34 33 33 33 34 38 40 43 48 48 47 52 60 65 66 67 68 66 60 52 47 40
42 43 43 39 34 34 35 35 35 37 38 37 38 37 36 37 36 36 37 38 39 39 39 39 40 42 43 43 44 46 48 49 49 49 48 50 52 54 56 55 53 51 49 49 52 50 49 49 48 49 48 45 44 43 42 44 46 42 40 39 36 35 35 33 30 29 30 30 32 33 34 39 45 45 44 52 61 64 66 66 67 65 59 54 49
43 44 43 40 35 34 35 35 37 40 40 38 38 37 36 38 39 39 40 40 41 40 40 40 41 42 43 45 47 48 51 50 49 49 51 52 52 52 53 54 53 50 48 47 51 50 48 49 47 45 43 41 41 42 41 42 43 41 40 39 36 35 35 32 30 27 26 27 29 32 33 34 39 45 44 47 52 58 64 65 65 66 64 60 57
42 43 43 41 36 35 36 36 38 40 40 38 37 37 36 38 40 41 43 43 43 44 42 41 41 41 42 45 49 50 52 52 52 52 54 54 53 52 52 53 54 52 50 48 48 49 47 46 46 45 43 41 41 41 42 42 42 41 40 37 36 36 34 31 30 26 25 26 27 30 33 33 34 40 44 45 48 53 57 60 62 64 67 65 61
40 41 42 40 36 35 37 38 37 37 38 38 36 36 36 38 40 41 43 43 44 45 44 43 42 42 41 43 46 48 51 53 54 54 54 55 54 53 52 52 52 51 49 48 45 46 46 46 48 47 46 46 43 42 43 42 41 41 40 38 37 37 34 31 27 24 25 27 27 28 29 31 32 34 39 41 45 49 52 54 56 58 62 66 64
36 37 38 39 36 34 37 38 36 36 37 38 36 35 36 37 39 39 40 40 41 43 44 44 44 44 42 41 41 43 49 52 52 52 53 55 54 52 53 52 51 49 49 47 45 45 45 47 49 48 50 50 46 44 41 38 39 39 39 37 36 36 34 31 26 23 26 28 28 29 31 32 32 32 34 37 39 43 47 48 52 55 56 59 63
34 34 34 35 35 33 34 36 36 37 37 35 34 35 35 36 38 39 39 38 39 42 43 44 46 48 45 42 40 40 46 49 49 52 51 51 52 50 51 50 48 49 50 47 44 44 45 47 47 47 51 52 48 45 38 35 36 36 37 36 34 35 34 32 28 24 25 28 27 28 32 35 34 32 32 33 34 36 41 44 50 56 56 57 60
34 35 33 33 33 32 32 34 36 37 35 33 33 34 34 35 37 39 39 39 39 41 41 42 47 50 49 48 46 42 43 45 46 48 47 47 49 49 48 47 46 48 49 47 44 43 45 47 46 47 50 49 47 43 38 35 34 34 35 34 33 32 31 33 30 23 27 31 29 27 30 34 35 33 31 31 32 33 35 39 46 52 56 59 59
33 35 34 33 34 32 32 33 34 34 33 31 31 33 35 35 37 39 40 38 37 37 38 40 44 48 49 51 51 46 42 43 43 42 41 43 45 46 46 46 47 47 46 46 45 42 43 46 48 50 50 48 44 39 38 38 36 35 34 33 31 26 26 31 29 24 29 33 31 29 30 34 36 36 34 33 33 33 33 34 37 41 48 56 60
32 33 35 34 34 32 31 31 31 31 30 29 29 32 34 35 37 38 37 37 36 34 35 38 41 43 46 49 51 48 43 41 41 41 40 41 42 43 43 45 47 47 48 47 45 42 41 45 47 49 49 46 42 37 36 38 38 35 31 29 25 20 21 25 26 25 29 32 32 32 31 30 34 36 37 36 35 35 34 32 32 35 39 45 54
32 33 34 34 33 32 30 28 27 27 27 26 27 30 34 34 34 34 33 35 36 35 35 37 40 42 44 48 50 49 46 42 41 41 40 40 40 40 41 42 44 46 47 46 45 42 41 44 45 45 45 44 42 36 35 36 35 31 25 22 20 18 19 21 23 25 28 32 33 34 33 31 31 31 33 34 36 37 37 36 37 44 43 37 43
31 32 32 32 31 31 29 28 24 23 23 25 26 29 31 31 31 31 31 33 35 34 35 37 40 42 44 48 50 50 50 47 45 43 41 41 39 39 39 39 41 43 43 44 46 45 44 45 43 43 43 41 39 33 31 30 29 27 22 20 20 19 18 20 22 24 27 32 34 35 35 36 36 33 33 33 34 36 37 37 40 50 51 43 42
30 30 30 30 29 29 29 28 25 23 23 25 28 29 29 30 30 30 32 33 34 34 35 36 39 41 44 47 50 53 53 50 48 45 42 41 39 37 38 38 39 42 43 43 47 48 45 42 41 42 40 39 36 30 23 21 23 24 21 20 21 20 18 19 22 23 26 30 32 36 38 38 39 38 39 37 34 35 35 36 37 41 46 48 47
30 29 29 29 29 28 28 28 28 26 24 25 28 30 29 29 31 32 34 35 34 34 35 36 38 41 43 45 48 51 51 49 47 45 43 42 40 38 38 38 38 39 41 44 48 49 44 40 41 40 37 33 27 21 16 15 19 22 20 19 20 21 20 19 22 25 27 29 30 35 38 38 37 39 41 41 38 38 38 38 38 37 38 41 44
29 29 29 29 29 28 28 28 29 28 25 24 25 28 29 29 31 33 35 36 35 34 33 36 38 40 42 43 45 47 48 46 44 44 44 44 43 41 40 38 37 36 37 42 49 49 43 39 36 31 27 22 18 17 18 18 19 20 20 20 21 23 21 19 23 27 28 30 30 32 35 36 37 37 38 39 39 40 41 41 40 39 38 37 39
28 29 29 29 28 28 28 27 28 28 26 23 23 24 26 28 30 31 33 34 34 32 33 36 38 39 41 41 43 45 46 44 43 43 44 44 43 42 41 38 37 35 35 41 47 44 38 32 26 20 18 18 19 22 22 21 21 21 21 23 24 23 21 20 24 29 30 31 33 33 31 32 34 37 39 39 37 38 40 42 41 40 38 38 39
27 28 28 28 28 28 29 26 26 27 25 23 22 21 23 25 27 28 30 31 31 30 31 35 38 39 39 39 41 44 45 43 42 42 44 43 41 40 39 38 39 36 35 41 42 36 29 22 17 17 20 22 23 24 23 21 21 22 22 23 22 21 22 25 27 30 32 31 34 35 32 30 29 30 35 36 37 37 35 36 39 39 37 37 39
24 25 26 27 27 27 27 27 25 25 25 24 22 21 21 22 24 25 27 28 29 29 29 32 37 40 40 39 43 45 45 46 44 42 42 42 42 41 40 41 40 36 36 38 34 28 21 16 15 19 23 25 25 25 24 22 22 23 24 24 22 22 25 28 30 32 33 32 34 35 34 34 31 28 27 28 33 37 34 30 32 33 34 34 35
22 23 24 25 26 25 25 26 25 24 25 24 22 21 20 21 23 24 25 26 27 28 29 31 37 42 43 43 45 46 46 47 45 43 43 42 43 43 43 43 39 35 35 34 29 23 16 14 18 23 26 27 26 27 26 22 22 23 23 23 23 24 25 28 32 34 33 33 33 34 33 33 33 30 25 24 29 32 31 28 27 27 29 31 31
21 21 22 23 24 24 23 24 24 24 26 25 22 20 20 21 22 23 24 25 27 30 31 34 39 43 44 44 45 45 44 45 43 42 42 41 43 45 44 41 35 32 32 30 26 20 16 19 24 27 28 28 28 27 26 23 23 23 22 23 24 26 29 31 35 36 36 36 34 35 35 32 31 29 25 24 25 27 27 25 24 24 25 27 27
19 19 20 22 23 24 24 23 23 24 23 24 22 20 21 21 21 23 24 25 29 34 35 38 42 44 44 44 44 42 41 43 43 43 41 41 44 45 41 35 31 30 30 28 25 20 22 30 31 31 31 31 30 30 28 25 23 22 21 22 25 29 32 33 36 39 40 37 35 34 35 33 31 29 28 26 24 24 26 26 24 23 23 23 24
19 19 20 20 22 23 23 23 23 23 23 23 22 21 21 21 21 22 25 25 29 34 37 38 41 43 42 42 41 40 39 40 42 43 41 40 44 41 35 31 30 31 31 28 27 26 32 38 39 38 37 35 35 35 34 30 25 23 21 21 25 28 30 30 33 38 39 36 34 32 30 31 31 30 30 29 27 25 26 27 26 25 25 24 24
19 19 20 20 21 22 23 24 23 23 23 22 22 22 21 21 21 21 22 23 26 32 35 36 40 42 41 40 39 39 39 39 41 42 40 38 39 35 30 31 31 33 33 31 30 33 38 41 43 43 41 40 40 38 36 34 32 30 24 22 26 27 28 30 32 33 34 34 34 32 30 30 31 32 31 30 30 28 27 28 27 28 28 27 26
22 21 20 20 21 21 22 24 24 24 24 24 23 23 21 21 21 21 21 21 24 29 31 34 39 42 41 39 38 40 41 40 40 41 39 36 34 31 30 32 33 35 35 34 34 38 42 44 47 47 45 45 44 41 38 35 36 37 32 27 27 27 27 30 31 31 31 31 31 31 32 34 33 31 30 31 31 30 28 28 28 27 27 27 28
25 25 23 23 23 23 24 25 24 24 24 24 25 23 22 21 21 21 20 21 25 29 30 33 38 40 40 39 39 41 40 37 39 41 37 32 31 31 32 34 37 39 41 40 40 44 49 53 54 53 52 51 49 48 47 44 41 39 36 35 31 27 26 27 29 30 30 29 30 32 34 36 36 34 33 32 31 29 28 28 29 29 28 28 28
26 28 27 28 29 29 29 29 28 26 25 24 24 24 23 21 21 21 19 20 24 28 32 35 37 37 38 39 40 40 37 34 36 36 32 29 31 33 35 39 42 45 47 45 44 49 54 55 55 54 55 55 53 53 54 54 49 45 42 40 37 33 29 28 29 29 27 27 29 32 34 34 35 38 38 33 30 29 30 32 33 34 34 33 31
29 30 31 32 34 34 34 33 32 31 29 25 23 23 22 22 21 20 19 20 22 27 32 36 37 37 36 38 39 36 33 32 32 32 30 31 33 36 40 43 44 47 48 48 50 54 56 56 56 55 55 55 54 55 57 58 55 52 49 43 40 38 34 31 31 29 27 27 29 33 36 35 33 36 35 32 31 34 37 39 39 38 37 35 35